Location: Peterborough
(44.3091°N, 78.3197°W)
Time: 00:09:05
(UTC-04:00)

SR - Pass Details

Date: 28 March 2023
Orbit: 581 x 867 km, 66.7° (Epoch: 02 June)

Event Time Altitude Azimuth Distance (km) Brightness Sun altitude
Rises 10:07:00 0° 338° (NNW) 2,811 ? 31.1°
Reaches altitude 10° 10:09:42 10° 355° (N) 1,918 ? 31.5°
Maximum altitude 10:12:56 21° 45° (NE) 1,381 ? 32.0°
Drops below altitude 10° 10:16:16 10° 94° (E) 1,975 ? 32.5°
Sets 10:19:05 0° 111° (ESE) 2,920 ? 32.9°
